Namest Nad Oslav, Czech Republic

7:23 PM CET on December 06, 2019 (GMT +0100)
Namest

Weather History for LKNA - August, 2019

Change the Weather History Date:

Monday, August 5, 2019

  Actual Average (WUND) Record (WUND)
Temperature  
Mean Temperature 68 °F -  
Max Temperature 80 °F - - (-1)
Min Temperature 55 °F - - (-1)
Cooling Degree Days 2    
Growing Degree Days 18 (Base 50)    
Moisture  
Dew Point 52 °F    
Average Humidity 53    
Maximum Humidity 94    
Minimum Humidity 23    
Precipitation  
Precipitation 0.00 in - - ()
Sea Level Pressure  
Sea Level Pressure 29.95 in    
Wind  
Wind Speed 5 mph ()    
Max Wind Speed 11 mph    
Max Gust Speed -    
Visibility 14.5 miles    
Events      
Averages and records for this station are not official NWS values.
T = Trace of Precipitation, MM = Missing Value Source: Averaged Metar Reports

Daily Weather History Graph

Daily Weather History Graph

Search for Another Location

Airport or City:

Astronomy

Aug. 05, 2019 Rise Set
Actual Time 5:32 AM CEST 8:29 PM CEST
Civil Twilight 4:55 AM CEST 9:06 PM CEST
Nautical Twilight 4:07 AM CEST 9:53 PM CEST
Astronomical Twilight 3:08 AM CEST 10:52 PM CEST
Moon 10:52 AM CEST (8/5) 11:04 PM CEST (8/5)
Length of Visible Light 16h 10m
Length of Day
14h 56m
Waxing Crescent, 25% of the Moon is Illuminated
Aug 5
Waxing Crescent
Aug 7
First Quarter
Aug 15
Full
Aug 23
Last Quarter
Aug 30
New

Hourly Weather History & Observations

Time (CEST) Temp. Dew Point Humidity Pressure Visibility Wind Dir Wind Speed Gust Speed Precip Events Conditions
12:00 AM 61 °F 53 °F 67% 30.00 in 16 mi NNW 2.2 mph - -   Scattered Clouds
1:00 AM 60 °F 53 °F 69% 30.01 in 12 mi West 6.7 mph - -   Scattered Clouds
1:00 AM 59.0 °F 53.6 °F 82% 30.01 in - WNW 5.8 mph - N/A   Clear
2:00 AM 60 °F 52 °F 67% 30.01 in 12 mi WNW 6.7 mph - -   Scattered Clouds
2:00 AM 60.8 °F 51.8 °F 72% 30.01 in - WNW 4.6 mph - N/A   Clear
3:00 AM 58 °F 53 °F 76% 30.01 in 12 mi NNW 4.5 mph - -   Mostly Cloudy
4:00 AM 58 °F 51 °F 71% 30.00 in 12 mi NNW 6.7 mph - -   Scattered Clouds
4:00 AM 57.2 °F 53.6 °F 88% 30.01 in - North 4.6 mph - N/A   Clear
5:00 AM 57 °F 51 °F 76% 30.00 in 9 mi NNW 4.5 mph - -   Scattered Clouds
5:00 AM 55.4 °F 53.6 °F 94% 30.01 in - NNW 4.6 mph - N/A   Clear
6:00 AM 57 °F 51 °F 75% 30.00 in 9 mi North 6.7 mph - -   Scattered Clouds
6:00 AM 55.4 °F 51.8 °F 88% 30.01 in - North 5.8 mph - N/A   Clear
8:00 AM 63 °F 53 °F 60% 29.98 in 19 mi WNW 2.2 mph - -   Clear
8:00 AM 62.6 °F 55.4 °F 77% 30.01 in - Variable 2.3 mph - N/A   Clear
9:00 AM 67 °F 54 °F 55% 29.96 in 19 mi SSW 4.5 mph - -   Scattered Clouds
9:00 AM 66.2 °F 53.6 °F 64% 30.01 in - SSW 4.6 mph - N/A   Clear
10:00 AM 71 °F 55 °F 46% 29.94 in 19 mi SSW 4.5 mph - -   Scattered Clouds
10:00 AM 71.6 °F 55.4 °F 57% 30.01 in - SW 3.5 mph - N/A   Clear
11:00 AM 75 °F 54 °F 37% 29.93 in 19 mi SSW 4.5 mph - -   Scattered Clouds
11:00 AM 75.2 °F 53.6 °F 47% 29.98 in 6.2 mi SSW 4.6 mph - N/A   Mostly Cloudy
12:00 PM 77 °F 54 °F 35% 29.91 in 19 mi WNW 4.5 mph - -   Partly Cloudy
12:00 PM 77.0 °F 51.8 °F 41% 29.98 in 6.2 mi North 3.5 mph - N/A   Mostly Cloudy
1:00 PM 78.8 °F 50.0 °F 36% 29.98 in - West 5.8 mph - N/A   Clear
2:00 PM 78 °F 47 °F 23% 29.89 in 19 mi WSW 8.9 mph - -   Partly Cloudy
2:00 PM 78.8 °F 46.4 °F 32% 29.95 in - West 9.2 mph - N/A   Clear
3:00 PM 78.8 °F 48.2 °F 34% 29.95 in - West 9.2 mph - N/A   Clear
4:00 PM 79 °F 49 °F 24% 29.86 in 19 mi WSW 11.2 mph - -   Scattered Clouds
4:00 PM 78.8 °F 46.4 °F 32% 29.92 in - WSW 10.4 mph - N/A   Clear
5:00 PM 79 °F 49 °F 24% 29.86 in 31 mi West 8.9 mph - -   Mostly Cloudy
5:00 PM 78.8 °F 50.0 °F 36% 29.92 in - West 9.2 mph - N/A   Clear
6:00 PM 78 °F 50 °F 26% 29.84 in 31 mi West 6.7 mph - -   Mostly Cloudy
7:00 PM 76 °F 53 °F 33% 29.84 in 31 mi SW 4.5 mph - -   Overcast
7:00 PM 77.0 °F 51.8 °F 41% 29.92 in - SW 4.6 mph - N/A   Clear
8:00 PM 75 °F 52 °F 33% 29.85 in 31 mi West 6.7 mph - -   Overcast
8:00 PM 75.2 °F 51.8 °F 44% 29.92 in - West 5.8 mph - N/A   Clear
9:00 PM 71 °F 53 °F 43% 29.87 in 25 mi WSW 6.7 mph - -   Overcast
9:00 PM 71.6 °F 53.6 °F 53% 29.92 in - West 6.9 mph - N/A   Clear
10:00 PM 71.6 °F 53.6 °F 53% 29.92 in - West 9.2 mph - N/A   Clear
11:00 PM 67 °F 54 °F 55% 29.90 in 19 mi West 6.7 mph - -   Overcast
11:00 PM 66.2 °F 55.4 °F 68% 29.92 in - WNW 6.9 mph - N/A   Clear